User: anonymous   Login
Location: Gipe Farm
(40.9466°N, 95.5370°W)
Time: 03:02:12
(UTC-05:00)
Language:

Cosmos 1842 - Orbit

View from above orbital plane
View from above orbital plane
View from above satellite
View from above satellite

Ground track
Ground track

The orbit data is extracted from the following two-line orbital elements,

1 17911U 87038A   15090.48936140  .00005898  00000-0  37438-3 0  9993
2 17911 082.4891 263.4685 0013448 146.5116 213.6965 15.08638699519744
Epoch (UTC): 31 March 2015 11:44:40
Eccentricity: 0.0013448
inclination: 82.4891°
perigee height: 531 km
apogee height: 549 km
right ascension of ascending node: 263.4685°
argument of perigee: 146.5116°
revolutions per day: 15.08638699
mean anomaly at epoch: 213.6965°
orbit number at epoch: 51974

The dashed part of the orbit path shows where the satellite is in the earth's shadow,  

DLR